This is the latest recevied weather packets stored in our database for station/object KG5MMT-15. If no packets are shown the sender has not sent any weather packets the latest 10 day(s).
| Time | Temp. | Humidity | Pressure | Rain* | Wind** | Luminosity | Snow |
|---|---|---|---|---|---|---|---|
| 1787978878 | 15.56° C | 67% | 0 hPa | 0 mm | - | - | - |
| 1787978578 | 16.11° C | 68% | 0 hPa | 0 mm | - | - | - |
| 1787978278 | 16.67° C | 62% | 0 hPa | 0 mm | - | - | - |
| 1787977978 | 16.67° C | 63% | 0 hPa | 0 mm | - | - | - |
| 1787977678 | 16.67° C | 63% | 0 hPa | 0 mm | - | - | - |
| 1787977378 | 16.67° C | 64% | 0 hPa | 0 mm | - | - | - |
| 1787977078 | 16.67° C | 63% | 0 hPa | 0 mm | - | - | - |
| 1787976778 | 16.67° C | 64% | 0 hPa | 0 mm | - | - | - |
| 1787976478 | 16.67° C | 63% | 0 hPa | 0 mm | - | - | - |
| 1787976178 | 17.22° C | 63% | 0 hPa | 0 mm | - | - | - |
| 1787975878 | 17.78° C | 54% | 0 hPa | 0 mm | - | - | - |
| 1787975578 | 17.78° C | 57% | 0 hPa | 0 mm | - | - | - |
| 1787975278 | 17.22° C | 59% | 0 hPa | 0 mm | - | - | - |
| 1787974978 | 17.22° C | 59% | 0 hPa | 0 mm | - | - | - |
| 1787974678 | 17.22° C | 65% | 0 hPa | 0 mm | - | - | - |
| 1787974378 | 17.78° C | 65% | 0 hPa | 0 mm | - | - | - |
| 1787974078 | 18.33° C | 65% | 0 hPa | 0 mm | - | - | - |
| 1787973778 | 18.33° C | 59% | 0 hPa | 0 mm | - | - | - |
| 1787973478 | 18.33° C | 58% | 0 hPa | 0 mm | - | - | - |
| 1787973178 | 18.33° C | 60% | 0 hPa | 0 mm | - | - | - |
| 1787972878 | 18.89° C | 62% | 0 hPa | 0 mm | - | - | - |
| 1787972578 | 18.89° C | 56% | 0 hPa | 0 mm | - | - | - |
| 1787972278 | 19.44° C | 56% | 0 hPa | 0 mm | - | - | - |
| 1787971978 | 19.44° C | 55% | 0 hPa | 0 mm | - | - | - |
| 1787971678 | 20° C | 53% | 0 hPa | 0 mm | - | - | - |
* Rain latest hour (hover to see other rain measurements)
** Current wind speed in m/s (hover to see current wind gust speed)